Weather in Khotin

Ukraine / Chernovtci District     48°30′34″N   26°29′30″E
temp.,
°C
wind,
m/s
gust,
m/s
humid.,
%
clouds,
%
prec.,
mm/h
press.,
hPa
HPBL,
m
1 march, mon
mon123:00+3nw71393100 0.7 1026803
02:00+2nnw61196100 3.9 1026636
05:00+2nw51097100 0.6 1027566
08:00+2n51097100 1.1 1029562
11:00+5n687491 0.1 10311013
14:00+5n576896 0.3 10321000
17:00+5nnw466885 0.0 1033860
20:00+4nnw377692 0.1 1034344
2 march, tue
tue223:00+3nw258397 0.0 1035185
02:00+2wnw238295 0.0 103551
05:000wnw399125 0.0 1033228
08:00+1wnw4118612 0.0 1033380
11:00+6wnw696821 0.0 1030536
14:00+10wnw7115711 0.0 1029772
17:00+9wnw7145813 0.0 1027790
20:00+6nw517726 0.0 1028673
3 march, wed
wed323:00+5nw515781 0.0 1029605
02:00+3nw513861 0.0 1030393
05:00+2nw39922 0.0 1031261
08:00+1nw37948 0.0 1031263
11:00+5nw457321 0.0 1031650
14:00+7nw446021 0.0 1030831
17:00+6wnw246655 0.0 1028546
20:00+3w118147 0.0 102922
4 march, thu
thu423:00+2s22850 0.0 102722
02:00+2s23900 0.0 102537
05:00+1sse33930 0.0 102269
08:00+2s12890 0.0 102052
11:00+7wnw23620 0.0 1017335
14:00+11wnw46448 0.0 1015809
17:00+10w225516 0.0 101362
20:00+7w23658 0.0 101422
5 march, fri
fri523:00+5ssw117014 0.0 101422
02:00+4w017523 0.0 101322
05:00+4s2274100 0.0 101122
08:00+4ssw2370100 0.0 101050
11:00+10sw51051100 0.0 1009712
14:00+11wsw61150100 0.0 10081320
17:00+10wnw5959100 0.0 1008548
20:00+6wnw4108776 0.1 1011592